This is the latest recevied weather packets stored in our database for station/object KD2ZLA. If no packets are shown the sender has not sent any weather packets the latest 10 day(s).
| Time | Temp. | Humidity | Pressure | Rain* | Wind** | Luminosity | Snow |
|---|---|---|---|---|---|---|---|
| 1777835321 | 11.11° C | 36% | 1008.8 hPa | 0 mm | - | 265 W/m² | - |
| 1777835018 | 10.56° C | 36% | 1008.5 hPa | 0 mm | - | 286 W/m² | - |
| 1777834715 | 11.11° C | 37% | 1008.7 hPa | 0 mm | - | 283 W/m² | - |
| 1777834411 | 10.56° C | 36% | 1008.7 hPa | 0 mm | - | 281 W/m² | - |
| 1777834106 | 11.11° C | 36% | 1008.8 hPa | 0 mm | - | 275 W/m² | - |
| 1777833802 | 10.56° C | 36% | 1008.8 hPa | 0 mm | - | 767 W/m² | - |
| 1777833498 | 11.11° C | 35% | 1008.8 hPa | 0 mm | - | 260 W/m² | - |
| 1777833195 | 11.11° C | 35% | 1008.9 hPa | 0 mm | - | 1111 W/m² | - |
| 1777832892 | 10.56° C | 37% | 1009.2 hPa | 0 mm | - | 265 W/m² | - |
| 1777832592 | 11.11° C | 40% | 1009.1 hPa | 0 mm | - | 236 W/m² | - |
| 1777832288 | 10.56° C | 36% | 1009.1 hPa | 0 mm | - | 400 W/m² | - |
| 1777831985 | 10.56° C | 34% | 1009.3 hPa | 0 mm | - | 388 W/m² | - |
| 1777831682 | 10.56° C | 37% | 1009.2 hPa | 0 mm | - | 356 W/m² | - |
| 1777831380 | 10.56° C | 36% | 1009.3 hPa | 0 mm | - | 360 W/m² | - |
| 1777831075 | 10.56° C | 36% | 1009.2 hPa | 0 mm | - | 345 W/m² | - |
| 1777830774 | 11.67° C | 36% | 1009.3 hPa | 0 mm | - | 454 W/m² | - |
| 1777830474 | 11.67° C | 42% | 1009.4 hPa | 0 mm | - | 984 W/m² | - |
| 1777830174 | 10.56° C | 40% | 1009.3 hPa | 0 mm | - | 963 W/m² | - |
| 1777829874 | 10.56° C | 37% | 1009.5 hPa | 0 mm | - | 320 W/m² | - |
| 1777829570 | 11.11° C | 37% | 1009.5 hPa | 0 mm | - | 301 W/m² | - |
| 1777829267 | 11.11° C | 38% | 1009.5 hPa | 0 mm | - | 682 W/m² | - |
| 1777828964 | 10° C | 38% | 1009.7 hPa | 0 mm | - | 1080 W/m² | - |
| 1777828660 | 10° C | 39% | 1009.6 hPa | 0 mm | - | 328 W/m² | - |
| 1777828357 | 10° C | 42% | 1009.7 hPa | 0 mm | - | 354 W/m² | - |
| 1777828054 | 10° C | 40% | 1009.8 hPa | 0 mm | - | 498 W/m² | - |
* Rain latest hour (hover to see other rain measurements)
** Current wind speed in m/s (hover to see current wind gust speed)